Theta_e
311 312 311 309 307 308 308 315 324 322 323 320 320 320 321 322 322 323 323 326 326 325 327 329 329 331 334 336 337 338 339 338 346 348 344 343 345 345 344 338 341 341 339 341
310 311 312 311 309 308 309 313 322 325 323 324 323 323 322 322 322 323 323 324 326 325 324 326 330 331 333 336 337 339 339 342 352 348 347 344 345 344 342 336 335 337 338 337
310 311 311 312 310 309 311 317 328 326 326 325 325 325 324 323 323 323 324 324 325 324 324 323 329 329 332 332 332 333 334 336 344 350 352 347 345 343 340 337 337 337 335 335
309 311 311 312 310 309 317 322 325 323 328 326 326 325 324 324 326 325 324 325 324 322 323 326 327 328 329 332 330 333 331 334 337 334 338 343 344 342 341 339 334 332 332 337
309 310 311 312 312 309 320 319 318 317 318 324 324 325 325 325 325 326 327 325 324 322 322 326 327 328 329 332 332 332 329 332 335 333 331 330 342 341 340 336 336 333 332 339
309 310 310 311 312 311 312 312 317 318 319 321 322 324 327 328 327 326 326 327 326 326 326 327 329 329 328 326 328 330 328 328 332 330 332 331 330 332 334 334 333 334 334 335
311 310 309 310 311 311 311 313 317 320 320 321 323 323 325 326 327 330 330 329 330 329 329 329 330 330 328 327 327 327 330 331 332 331 333 334 331 331 333 335 335 333 333 335
313 312 310 309 310 311 312 313 316 318 318 319 319 321 322 323 324 327 329 329 329 329 329 329 331 329 329 329 329 328 328 333 333 333 335 334 335 334 334 336 337 335 334 335
313 313 313 311 309 310 312 314 317 319 317 319 318 317 321 323 323 324 327 327 327 329 328 329 333 331 331 330 329 327 326 328 334 334 336 336 334 334 334 333 339 338 343 346
313 312 313 313 310 309 310 315 317 317 318 318 318 318 319 320 322 322 325 323 329 328 329 329 329 329 328 327 328 327 327 328 329 330 331 333 337 334 333 334 339 341 347 345
313 313 312 313 311 309 309 312 317 316 317 317 317 318 319 320 321 323 322 324 329 329 330 329 329 331 329 329 327 330 328 329 328 331 334 336 337 338 344 342 335 346 345 343
312 312 311 312 313 310 309 310 312 315 315 315 314 313 314 317 320 319 320 321 324 332 334 334 335 336 337 337 337 332 337 334 333 335 335 336 336 335 335 336 334 345 344 342
311 311 312 311 312 312 310 310 311 313 315 317 319 319 317 317 317 317 319 321 323 323 323 328 332 338 336 337 334 334 336 335 335 335 334 334 335 335 334 334 334 338 340 340
310 310 311 312 311 312 312 312 312 312 314 318 319 323 323 324 322 320 318 318 319 319 321 325 329 332 332 332 332 333 332 334 334 335 333 332 332 334 333 338 338 338 337 336
310 310 310 311 312 312 313 313 316 312 313 318 318 317 324 324 324 322 320 318 317 317 322 327 328 329 330 330 330 331 329 329 330 333 329 330 334 333 333 338 337 336 335 335
309 310 310 310 311 312 313 316 319 317 312 315 320 322 324 324 324 324 323 321 318 317 321 324 325 325 327 329 331 330 326 325 324 329 330 330 333 334 334 337 337 335 334 333
309 309 310 310 311 312 312 318 318 316 315 317 321 325 327 324 325 324 323 322 319 317 319 322 322 324 326 328 328 327 325 325 326 326 326 329 329 330 331 334 334 334 333 333
309 311 311 310 312 313 315 316 317 314 316 318 322 327 326 326 326 327 325 322 319 319 320 322 323 323 327 328 329 328 327 327 326 326 325 325 325 327 327 328 334 332 335 334
311 312 314 313 313 317 319 319 317 316 316 320 324 327 330 326 326 327 327 326 327 325 325 326 328 325 330 330 328 328 328 328 328 328 328 326 326 325 327 328 334 335 335 334
312 314 316 318 317 317 317 316 317 316 318 319 321 322 327 326 328 328 330 327 329 330 329 327 329 329 328 329 329 328 330 330 330 329 329 329 328 331 331 332 335 335 333 333
310 311 313 312 314 317 318 320 321 321 323 322 322 321 323 323 330 331 329 333 332 330 330 331 333 331 334 331 330 330 330 330 329 328 328 332 333 334 332 333 333 333 332 327
307 309 310 313 316 318 321 323 324 325 326 324 325 324 322 324 328 330 329 332 332 334 331 333 334 340 333 331 331 330 328 330 332 333 333 332 332 331 330 330 330 329 326 324
309 311 311 313 316 317 322 321 325 327 325 325 328 330 327 325 327 331 330 332 332 330 331 333 337 337 333 331 330 329 330 332 332 331 331 330 330 330 329 330 330 331 331 329
310 313 311 317 319 320 322 323 325 323 325 326 325 327 331 329 331 331 331 330 330 332 333 335 336 334 333 332 331 330 331 331 330 330 330 329 329 328 328 327 327 327 327 328
310 313 317 319 319 319 319 320 320 322 323 325 326 328 326 329 329 329 329 331 332 331 334 336 334 334 333 332 331 330 329 328 328 327 327 327 327 326 326 327 327 327 327 327
310 311 315 318 319 320 319 319 320 319 319 323 324 326 327 327 328 330 330 330 332 333 333 334 333 333 332 332 331 329 327 326 325 324 325 325 326 323 325 325 324 325 326 326
311 313 315 316 318 318 318 319 319 318 320 325 325 326 327 327 329 329 331 332 330 329 328 327 328 331 331 331 330 327 326 326 326 326 326 326 326 326 325 323 323 322 323 324
Wind_Speed
27 28 29 30 32 30 17 4 4 22 29 6 7 8 10 13 22 31 20 11 8 10 12 9 7 17 18 24 19 17 15 9 4 4 5 2 6 7 9 5 5 5 4 6
28 28 28 28 29 33 31 12 9 15 19 4 8 10 19 22 20 21 20 14 7 9 10 7 7 10 10 24 8 15 13 11 4 5 7 7 5 12 14 7 2 8 2 6
29 29 29 27 26 28 22 6 3 10 19 18 11 13 14 18 29 22 26 14 4 8 8 11 7 11 7 13 6 8 2 4 6 6 9 6 13 26 23 9 6 6 4 3
27 29 30 28 26 23 15 3 3 10 3 6 12 14 15 18 18 20 26 3 7 9 8 8 8 10 11 4 3 2 2 1 1 4 13 24 16 10 22 21 13 6 7 1
26 27 29 29 27 22 13 10 8 11 19 19 14 12 17 17 20 16 7 8 9 11 9 8 8 9 8 6 1 2 3 2 5 6 6 6 25 26 26 18 19 7 8 8
25 26 27 27 27 25 10 16 13 11 12 10 10 10 13 15 12 20 20 8 12 12 11 10 14 19 19 9 4 5 7 4 2 5 6 8 8 8 4 4 4 4 6 7
26 25 25 24 24 22 20 14 12 8 6 8 12 22 22 21 10 5 11 20 4 11 9 11 12 22 15 10 10 4 6 6 5 5 3 6 7 7 5 2 4 7 8 10
28 27 24 23 21 20 18 14 7 10 8 15 18 20 20 26 22 14 10 18 16 12 9 4 5 6 6 7 9 11 4 4 2 5 4 6 4 4 4 5 4 8 10 9
28 27 26 24 21 20 18 10 6 12 9 3 18 21 22 11 7 9 13 17 16 10 4 3 2 3 4 5 5 7 8 2 4 1 4 6 8 6 18 8 4 8 14 9
28 27 25 24 22 19 18 10 6 9 15 23 14 8 12 17 13 5 10 19 8 11 0 2 3 7 8 9 8 9 4 4 4 3 4 2 5 8 7 4 4 12 22 17
29 26 24 22 21 20 19 11 7 10 15 34 33 15 15 20 15 5 17 13 5 0 4 4 5 4 7 7 12 9 10 4 5 3 3 2 4 11 6 3 15 21 24 29
28 25 23 21 20 19 20 19 12 15 17 28 30 36 36 29 25 18 8 9 10 7 4 4 4 3 3 6 6 5 1 4 7 6 6 8 25 19 15 12 5 19 25 27
27 25 22 21 19 19 20 24 21 13 12 27 20 20 14 24 29 24 10 5 5 8 12 2 3 3 3 3 4 7 6 8 4 6 5 8 23 15 10 7 3 12 22 25
28 25 23 21 20 19 21 24 21 13 8 7 10 12 17 12 12 16 24 26 24 15 12 3 2 2 6 4 2 3 1 7 3 4 5 5 4 10 16 15 20 23 21 20
28 25 23 21 20 20 21 23 15 11 7 6 17 29 6 9 15 17 18 20 19 15 5 2 3 5 5 4 3 4 6 3 3 3 8 1 5 18 15 20 20 18 18 18
27 25 23 21 19 19 18 4 7 5 14 6 4 11 15 8 19 13 13 13 16 15 3 4 6 15 3 1 2 4 17 16 18 5 13 17 14 13 11 19 19 23 25 24
28 26 24 20 16 16 10 5 6 4 5 4 5 5 7 11 8 9 12 12 12 13 13 6 8 11 4 2 3 4 10 11 11 11 11 7 4 2 4 7 15 21 19 22
29 26 20 15 12 10 5 6 10 6 6 6 4 5 5 13 8 8 16 13 14 10 9 7 4 6 3 2 0 2 5 3 7 8 6 7 7 0 6 11 14 19 30 30
25 18 14 7 1 1 4 5 4 8 9 5 4 4 3 3 16 8 11 10 3 8 4 4 5 4 4 6 11 10 7 0 1 4 6 7 10 11 7 7 23 32 31 30
19 9 5 1 2 4 3 2 3 5 6 7 5 7 5 8 6 3 8 6 3 3 5 11 2 3 9 9 19 19 9 8 2 4 6 7 10 15 7 2 17 26 27 20
17 10 4 9 11 1 4 5 7 9 4 8 8 18 7 8 2 1 13 3 1 2 4 6 4 3 3 16 17 12 8 4 3 4 2 11 11 14 14 17 14 16 16 3
18 13 13 7 3 4 4 3 4 5 4 8 5 10 14 6 3 3 4 3 5 3 8 2 2 1 16 20 16 10 9 11 15 15 16 16 18 15 12 12 9 4 3 8
7 3 3 2 3 2 4 4 3 2 7 7 8 3 3 7 3 4 4 2 4 7 2 1 2 11 13 13 12 10 9 13 16 16 15 16 15 13 14 12 7 4 5 4
3 3 3 4 3 5 3 4 4 7 10 15 6 3 2 4 1 2 1 3 3 3 3 1 4 12 13 13 10 9 10 12 12 11 10 9 9 10 9 8 4 2 3 6
4 4 4 6 4 6 17 17 11 17 20 13 3 3 4 3 2 2 0 1 4 2 2 3 15 14 14 16 15 13 12 12 11 7 5 4 3 4 3 3 4 4 1 3
4 6 5 7 5 4 8 9 9 14 22 8 4 2 3 2 3 3 4 3 2 2 2 10 12 13 13 14 11 10 9 7 6 4 3 3 5 7 7 9 9 8 9 10
4 6 9 13 12 10 8 8 5 16 14 3 2 3 3 4 3 3 4 4 1 6 11 9 13 11 10 9 7 7 6 5 4 2 2 5 5 5 9 10 12 12 9 7
Wind_Direction
355 354 354 352 347 347 346 336 270 149 165 160 191 234 240 255 277 289 292 272 292 293 302 312 329 223 205 208 215 218 204 209 159 197 268 163 175 257 296 147 265 234 208 244
357 355 355 355 353 348 347 332 282 184 181 214 229 236 240 255 262 268 274 277 226 268 293 317 326 324 305 220 191 222 215 213 123 17 355 335 298 278 258 227 190 263 287 284
356 357 355 354 355 342 337 316 285 233 201 232 257 263 256 244 245 257 271 285 265 298 274 283 280 304 308 62 44 82 1 158 163 180 195 171 223 249 264 211 226 245 252 331
355 357 357 354 354 349 345 260 341 13 322 309 305 262 274 279 277 248 246 315 296 285 289 289 293 295 304 343 125 83 176 119 80 248 171 200 227 268 267 246 228 196 260 338
354 358 359 358 358 5 20 359 1 331 299 293 304 295 233 256 274 282 246 185 239 268 265 267 283 300 304 270 145 142 357 287 6 325 323 324 190 207 242 245 231 236 122 67
353 356 359 1 1 6 16 348 339 324 295 306 308 293 315 290 276 279 284 253 203 231 257 283 302 315 309 300 305 232 160 150 155 254 303 315 298 250 291 290 63 85 100 159
356 353 354 359 1 3 353 350 339 307 294 313 306 321 318 312 328 321 330 320 308 206 35 1 330 316 301 307 308 310 187 167 143 204 219 234 245 281 284 17 102 128 114 112
354 353 349 349 352 352 348 348 313 324 305 311 309 340 330 327 347 335 319 317 352 2 38 43 345 317 336 305 295 297 321 185 202 158 212 239 257 318 61 151 75 58 95 86
349 347 347 343 342 342 345 350 343 319 299 263 335 314 306 301 328 327 297 308 317 328 25 44 241 256 312 286 291 272 294 255 138 10 171 242 245 116 55 41 52 10 76 77
340 340 339 338 335 335 339 348 325 318 290 278 318 294 311 312 327 300 308 339 321 252 349 318 271 258 223 255 265 272 281 279 213 250 198 202 333 17 30 110 226 68 87 83
333 330 332 331 332 330 331 340 19 319 290 282 275 283 305 308 292 294 331 331 357 99 160 194 248 260 257 234 237 227 234 214 228 195 154 159 39 41 79 144 48 104 105 106
332 329 327 325 327 326 323 321 309 282 274 262 278 275 269 254 248 288 304 297 306 351 27 14 329 301 329 272 259 225 68 237 190 140 168 130 91 99 86 91 60 127 122 127
329 327 324 318 321 320 315 310 320 335 289 300 273 265 256 243 243 238 253 274 0 11 8 301 271 290 2 337 71 356 13 19 88 80 13 100 116 117 126 119 172 157 137 138
327 324 318 314 312 315 309 307 311 264 281 278 292 345 283 262 231 215 227 244 276 301 331 300 270 306 360 343 352 18 115 30 64 91 52 83 44 163 147 127 118 123 129 126
326 326 318 308 306 312 310 310 303 245 213 303 296 314 295 227 209 210 223 230 245 262 295 274 286 304 19 337 13 18 26 65 56 318 342 54 153 135 142 149 142 137 136 128
328 326 317 306 303 309 321 326 348 23 200 291 292 300 281 268 190 191 206 225 231 231 242 256 245 255 279 76 336 336 1 357 15 42 75 77 87 122 142 145 151 161 159 156
329 319 310 302 298 296 277 244 170 141 168 268 289 277 259 205 181 204 208 210 215 212 233 238 266 293 286 155 173 297 328 339 39 32 44 70 62 38 67 211 212 192 178 173
328 322 311 297 295 291 289 253 203 200 217 258 274 267 252 180 184 216 204 177 196 211 233 237 204 283 248 211 173 327 310 17 35 21 11 354 8 95 287 310 220 184 176 165
334 330 319 300 137 205 237 228 242 226 213 286 273 300 264 232 231 242 184 188 173 209 199 227 201 226 218 187 222 228 239 302 34 20 10 360 344 316 306 286 176 169 159 158
342 358 345 243 338 269 292 239 194 193 216 233 253 266 270 315 299 222 192 186 227 170 213 212 202 258 264 254 231 205 139 107 105 115 53 343 341 347 326 116 147 148 141 129
358 345 316 331 325 258 221 228 203 186 221 217 241 233 250 286 252 332 13 303 343 202 250 173 180 167 3 107 99 102 104 89 19 341 47 84 79 98 106 103 122 147 166 215
318 304 296 301 305 256 255 233 215 196 233 198 221 238 207 251 294 111 3 10 338 291 331 69 99 40 78 97 93 86 67 74 73 91 93 85 82 73 90 106 114 84 280 243
324 293 288 259 245 285 238 219 214 228 338 342 327 316 323 196 268 124 134 184 255 311 4 192 129 109 87 89 97 90 82 93 82 81 81 80 78 90 86 87 77 70 69 191
282 255 269 226 206 246 252 338 326 313 312 323 315 305 326 327 254 11 70 174 166 217 223 144 135 104 96 93 103 121 100 104 98 82 74 79 80 75 74 63 53 333 262 221
269 275 253 223 301 269 295 312 336 349 315 299 320 25 31 311 251 213 88 250 248 227 67 99 140 127 116 108 104 106 103 104 102 104 96 66 19 1 353 292 250 234 227 238
243 242 266 306 299 327 352 2 329 338 335 329 36 52 88 271 244 214 195 223 49 40 111 110 129 126 121 112 112 113 109 108 97 83 64 36 333 345 345 322 315 286 264 259
239 242 255 275 285 299 340 313 354 310 325 2 46 122 262 295 255 174 22 43 339 128 111 129 125 130 138 132 139 132 123 114 111 88 8 347 26 348 312 334 330 316 278 280